Weather in Botucatu

Brazil     22°54′01″S   48°27′19″W
temp.,
°C
wind,
m/s
gust,
m/s
humid.,
%
clouds,
%
prec.,
mm/h
press.,
hPa
HPBL,
m
21 april, wed
wed2100:00+16se49809 0.0 1018717
03:00+15se41084100 0.0 1016726
06:00+15se398440 0.0 1017774
09:00+18se58718 0.0 1018798
12:00+22se45542 0.0 10171283
15:00+22se455113 0.0 10151589
18:00+18se49750 0.0 1016448
21:00+14sse3109736 0.0 1018341
22 april, thu
thu2200:00+14se499375 0.0 1018501
03:00+16se487875 0.0 1016783
06:00+15se41090100 0.0 1017603
09:00+17se487865 0.0 1018783
12:00+20ese456582 0.1 10181111
15:00+21se335995 0.1 10151396
18:00+18sse3773100 0.0 1016420
21:00+16se388176 0.1 1018344
23 april, fri
fri2300:00+12se39940 0.0 1018259
03:00+11se279713 0.0 1017168
06:00+11se25950 0.0 101893
09:00+17ese34624 0.0 1018388
12:00+23e21425 0.0 10161230
15:00+25sse02350 0.0 10131749
18:00+17ese11661 0.0 101411
21:00+15se227121 0.0 101529
24 april, sat
sat2400:00+13se23863 0.0 101651
03:00+13e11830 0.0 101517
06:00+13e11850 0.0 101513
09:00+20ene22574 0.0 1016309
12:00+25ne223997 0.0 10141142
15:00+26nw243513 0.0 10111852
18:00+20sw00605 0.0 101211
21:00+18s1166100 0.0 101411
25 april, sun
sun2500:00+18sse2366100 0.0 101461
03:00+18se1165100 0.0 101314
06:00+16se1174100 0.0 101321
09:00+22ne115172 0.0 1014365
12:00+27n353798 0.0 10121611
15:00+23wsw225395 0.0 101052
18:00+21ssw265665 0.0 1010146
21:00+17ssw227678 0.0 101341